Williston, ND

12:11 AM CST on December 10, 2019 (GMT -0600)
Sloulin International

Weather History for KISN - August, 2019

Change the Weather History Date:

Tuesday, August 13, 2019

  Actual Average Record
Temperature  
Mean Temperature 60 °F 70 °F  
Max Temperature 69 °F 85 °F 102 °F (1937)
Min Temperature 51 °F 55 °F 37 °F (1977)
Degree Days  
Heating Degree Days 5 1  
Month to date heating degree days 6 13  
Since 1 June heating degree days 91 157  
Since 1 July heating degree days 21 37  
Cooling Degree Days 0 6  
Month to date cooling degree days 80 88  
Year to date cooling degree days 324 351  
Since 1 June cooling degree days 318 338  
Growing Degree Days 11 (Base 50)    
Moisture  
Dew Point 51 °F    
Average Humidity 70    
Maximum Humidity 93    
Minimum Humidity 47    
Precipitation  
Precipitation T in 0.05 in 0.92 in (1986)
Month to date precipitation 1.47 0.63  
Year to date precipitation 11.13 10.30  
Sea Level Pressure  
Sea Level Pressure 30.15 in    
Wind  
Wind Speed 8 mph (North)    
Max Wind Speed 20 mph    
Max Gust Speed 33 mph    
Visibility 10 miles    
Events      
T = Trace of Precipitation, MM = Missing Value Source: NWS Daily Summary

Daily Weather History Graph

Daily Weather History Graph

Search for Another Location

Airport or City:

Astronomy

Aug. 13, 2019 Rise Set
Actual Time 6:46 AM CDT 9:11 PM CDT
Civil Twilight 6:11 AM CDT 9:46 PM CDT
Nautical Twilight 5:27 AM CDT 10:29 PM CDT
Astronomical Twilight 4:37 AM CDT 11:19 PM CDT
Moon 8:37 PM CDT (8/13) 4:39 AM CDT (8/13)
Length of Visible Light 15h 35m
Length of Day
14h 25m
Waxing Gibbous, 97% of the Moon is Illuminated
Aug 13
Waxing Gibbous
Aug 15
Full
Aug 23
Last Quarter
Aug 30
New
Sep 5
First Quarter

Hourly Weather History & Observations

Time (CDT) Temp. Dew Point Humidity Pressure Visibility Wind Dir Wind Speed Gust Speed Precip Events Conditions
12:52 AM 55.0 °F 53.1 °F 93% 29.96 in 7.0 mi North 17.3 mph 33.4 mph N/A   Overcast
1:52 AM 55.9 °F 52.0 °F 87% 30.00 in 10.0 mi North 17.3 mph - N/A   Overcast
2:52 AM 55.0 °F 52.0 °F 89% 30.02 in 10.0 mi North 12.7 mph - N/A   Overcast
3:52 AM 55.0 °F 51.1 °F 86% 30.05 in 10.0 mi North 13.8 mph - N/A   Overcast
4:52 AM 55.0 °F 51.1 °F 86% 30.07 in 10.0 mi North 15.0 mph - N/A   Overcast
5:01 AM 55.9 °F 51.1 °F 84% 30.08 in 10.0 mi North 12.7 mph - N/A   Overcast
5:52 AM 55.0 °F 52.0 °F 89% 30.10 in 10.0 mi North 12.7 mph - N/A   Overcast
6:25 AM 55.0 °F 51.1 °F 86% 30.11 in 10.0 mi NNW 9.2 mph - N/A   Overcast
6:52 AM 55.0 °F 51.1 °F 86% 30.12 in 10.0 mi NNW 12.7 mph - N/A   Overcast
7:00 AM 55.9 °F 51.1 °F 84% 30.12 in 10.0 mi North 13.8 mph - N/A   Overcast
7:52 AM 55.9 °F 52.0 °F 87% 30.14 in 10.0 mi NNW 12.7 mph - N/A   Overcast
8:00 AM 55.9 °F 51.1 °F 84% 30.15 in 10.0 mi NNW 10.4 mph - N/A   Overcast
8:42 AM 55.9 °F 52.0 °F 87% 30.16 in 10.0 mi North 10.4 mph - N/A   Overcast
8:52 AM 55.9 °F 52.0 °F 87% 30.16 in 10.0 mi North 11.5 mph - N/A   Overcast
9:04 AM 55.9 °F 52.0 °F 87% 30.16 in 10.0 mi North 10.4 mph - N/A   Overcast
9:36 AM 55.9 °F 53.1 °F 90% 30.17 in 6.0 mi North 11.5 mph - N/A   Overcast
9:52 AM 55.9 °F 53.1 °F 90% 30.18 in 8.0 mi North 9.2 mph - 0.00 in   Overcast
10:40 AM 57.0 °F 52.0 °F 83% 30.19 in 10.0 mi NNW 10.4 mph - N/A   Overcast
10:52 AM 57.9 °F 52.0 °F 81% 30.19 in 10.0 mi North 8.1 mph - N/A   Overcast
11:36 AM 60.1 °F 52.0 °F 75% 30.19 in 10.0 mi North 8.1 mph - N/A   Overcast
11:52 AM 61.0 °F 51.1 °F 70% 30.20 in 10.0 mi North 10.4 mph - N/A   Overcast
12:52 PM 64.0 °F 51.1 °F 63% 30.20 in 10.0 mi NNE 10.4 mph - N/A   Overcast
1:52 PM 66.0 °F 50.0 °F 56% 30.20 in 10.0 mi Variable 4.6 mph - N/A   Overcast
2:52 PM 69.1 °F 48.0 °F 47% 30.19 in 10.0 mi NE 6.9 mph - N/A   Overcast
3:52 PM 66.9 °F 48.9 °F 52% 30.19 in 10.0 mi NE 3.5 mph - N/A   Overcast
4:52 PM 66.0 °F 48.9 °F 54% 30.20 in 10.0 mi North 8.1 mph - N/A   Overcast
5:52 PM 66.9 °F 48.9 °F 52% 30.19 in 10.0 mi North 5.8 mph - N/A   Overcast
6:52 PM 66.9 °F 48.9 °F 52% 30.19 in 10.0 mi North 4.6 mph - N/A   Overcast
7:52 PM 66.0 °F 48.9 °F 54% 30.19 in 10.0 mi NW 3.5 mph - N/A   Overcast
8:52 PM 64.0 °F 51.1 °F 63% 30.19 in 10.0 mi WNW 3.5 mph - N/A   Scattered Clouds
9:52 PM 55.0 °F 51.1 °F 86% 30.21 in 10.0 mi WNW 4.6 mph - N/A   Clear
10:52 PM 53.1 °F 50.0 °F 89% 30.22 in 10.0 mi West 3.5 mph - N/A   Clear
11:52 PM 52.0 °F 48.9 °F 89% 30.21 in 10.0 mi Calm Calm - N/A   Clear